Showing default

ICEYE-X53, 64584

Orbit data source: Space-Track

ICEYE-X53, 64584 is a payload satellite owned by ICEYE (FI) in SSO that was launched on Mon, 23 Jun 2025 UTC via an FALCON 9 launch vehicle from the Air Force Western Test Range (AFWTR). Payload-class satellites include a variety of spacecraft equipped with specific instruments for various scientific and technological missions. These include communications satellites like Starlink; space stations such as the ISS; scientific satellites like the Hubble; Earth observation satellites from companies like Planet Labs, Umbra, and HawkEye 360; GPS; miniature CubeSats for education and research; and military/defense satellites.

Loading next visibility...
Identifier
64584, 2025-135BJ
Orbit
SSO
Country
Flag of FIFI / FIN
Related business
Manufacturer
ICEYE
Mission
Operational Commercial Radar Imaging
Bus & Motor
ICEYE, Unknown motor
Mass
80 kg wet, 80 kg dry
Launch date (UTC)
2025-06-23 (7 months ago)
Launch vehicle
FALCON 9
Launch site
Air Force Western Test Range (AFWTR)
Object type
Payload
Rocket body
Debris
Shape & HBR
Box + 1 Pan, 0.8 m
Radar Cross Section
0.776 m², Large (>1 m²)

Expand to show TLE details & history
Last TLE update: 5 hours ago

TLE from 5 hours ago
0 ICEYE-X53
1 64584U 25135BJ  26036.28703207  .00009208  00000-0  72815-3 0  9994
2 64584  97.7473 153.5703 0001168  86.6807 273.4551 15.00864535 34293
Epoch: 2026-02-05T06:53Z
TLE epoch observation values (Epoch: 2026-02-05T06:53:19.570Z)
Latitude
0.00002°
Longitude
-85.20267°
Altitude
567.235 km
Speed
7.577 km/s
True Right ascension
10h 14m 16s
True Declination
0° 00' 00"
Sunlit
Object was in full shadow at epoch
Visualization orbit readout
Latitude
Unknown
Longitude
Unknown
Altitude
Unknown
Speed
Unknown
Apparent Right ascension
Unknown
Apparent Declination
Unknown
Sunlit
N/A
Visualization observer readout
Local Sidereal Time
14:07:18
Azimuth
Unknown
Elevation
Unknown
Doppler factor
Unknown
Orbital elements
Apogee altitude
562.046 km
Perigee altitude
560.425 km
Semi-major axis
6,939.372 km
Eccentricity
0.00012
Inclination
97.7473°
RAAN
153.5703°
Arg. of periapsis
86.6807°
True anomaly
273.44174°
Mean anomaly
273.4551°
Eccentric anomaly
273.44842°
Mean motion
3.75459 °/min
Orbital period
95.88 mins
BSTAR
0.00072815
Loading maneuver chart data...
Computing Atmospheric mass density...
Loading historical data...
Loading historical data...
Loading historical data...
Loading historical data...
Loading historical data...
Loading historical data...
Loading historical data...

Documentation

Showing up to 5 results
|